Regional Weather Roundup
Issued by NWS

Home | Current Version | Previous Version | Text Only | Print | Product List | Glossary On
Versions: 1 2 3 4 5 6 7 8 9 10 11 12 13 14 15 16 17 18 19 20 21 22 23 24 25 26 27 28 29 30 31 32 33 34 35 36 37 38 39 40 41 42 43 44 45 46 47 48 49
000
ASUS45 KBOI 261510
RWRID
WEATHER ROUNDUP FOR IDAHO
NATIONAL WEATHER SERVICE BOISE ID
800 AM MST WED NOV 26 2014

NOTE: "FAIR" INDICATES FEW OR NO CLOUDS BELOW 12000 FEET
WITH NO SIGNIFICANT WEATHER AND/OR OBSTRUCTIONS TO VISIBILITY

IDZ012-014-261600-
SOUTHWEST IDAHO


CITY           SKY/WX    TMP DP  RH WIND       PRES   REMARKS
BOISE          PTCLDY    38  35  89 SE5       30.32R WCI  34
CALDWELL       NOT AVBL
MOUNTAIN HOME  CLEAR     35  35 100 CALM      30.33R
$$

IDZ016-017-261600-
SOUTHCENTRAL IDAHO


CITY           SKY/WX    TMP DP  RH WIND       PRES   REMARKS
BURLEY         PTCLDY    43  32  65 W14       30.32R
JEROME         PTCLDY    39  32  76 S10       30.33S WCI  32
TWIN FALLS     PTCLDY    43  31  62 S12       30.34R
$$

IDZ019>023-261600-
SOUTHEAST IDAHO


CITY           SKY/WX    TMP DP  RH WIND       PRES   REMARKS
IDAHO FALLS    MOCLDY    40  35  83 SW24G31   30.24R WCI  29
POCATELLO      MOCLDY    45  37  73 SW25G33   30.31R
REXBURG        CLOUDY    39  34  82 S14       30.23R WCI  31
$$

IDZ006-010-011-018-031-032-261600-
CENTRAL IDAHO MOUNTAINS


CITY           SKY/WX    TMP DP  RH WIND       PRES   REMARKS
MCCALL         CLOUDY    34  34 100 CALM      30.28S
HAILEY         PTCLDY    30  28  93 W8        30.28R WCI  23
STANLEY          N/A     33  29  85 S3        30.31R
SALMON         CLOUDY    30  28  93 CALM      30.19R VSB<1/4
CHALLIS        CLOUDY    42  32  67 SE6       30.22R
$$

IDZ002-004-006-007-026-261600-
NORTHERN IDAHO


CITY           SKY/WX    TMP DP  RH WIND       PRES   REMARKS
LEWISTON       CLOUDY    41  40  96 CALM      30.19R
LOWELL           N/A     37  36  96 CALM      30.25R
COEUR D`ALENE  CLOUDY    34  30  86 CALM      30.15S
MULLAN PASS    SNOW      34  31  88 NW8       30.08S VSB 1/4 WCI  27
$$


USA.gov is the U.S. government's official web portal to all federal, state and local government web resources and services.